Location: Alladorf
(49.9620°N, 11.3790°E)
Time: 19:46:00
(UTC+00:00)

SJ 16-02 - Pass Details

Date: 29 November 2020
Orbit: 606 x 616 km, 75.0° (Epoch: 25 January)

Event Time Altitude Azimuth Distance (km) Brightness Sun altitude
Exits shadow 03:09:04 22° 84° (E) 1,358 3.7 -34.5°
Drops below altitude 10° 03:11:49 10° 47° (NE) 1,987 4.5 -34.0°
Sets 03:14:25 0° 33° (NNE) 2,898 5.3 -33.6°
